DMSP 5D-3 F18 (USA 210)

Last updated on Sat Aug 15 2026 00:02:40 GMT+0000 (Coordinated Universal Time)

1 35951U 09057A 26226.62258007 .00000180 00000+0 11608-3 0 9999 2 35951 98.9094 207.2800 0012292 85.2669 274.9907 14.14926878867857
UTC large
Height (km)
Speed (km/s)
/
Latitude / Longitude
Inclination (degrees)
Orbital Period (minutes)
Azimuth
Elevation
Range (km)
Doppler Factor

Next 0 passes for location: London (51.5072 / 0.1276)

No passes found over London.
DMSP 5D-3 F18 (USA 210)